EW2997 Weather Reports


time (UTC)temp
F
wind
direction
speed
knots
gust
knots
rain 1hr
in
rain 24hr
in
rain mn
in
humidity
%
barometer
mb
20260503034700 42 35 1.7 1.7 0.00 0.00 0.00 72 1017.7
20260503031656 42 4 1.7 1.7 0.00 0.00 0.00 70 1018.0
20260503024655 43 8 1.7 1.7 0.00 0.00 0.00 69 1018.0
20260503021651 44 282 2.6 2.6 0.00 0.00 0.00 66 1018.0
20260503014648 44 338 1.7 1.7 0.00 0.00 0.00 67 1018.0
20260503011648 45 30 2.6 2.6 0.00 0.00 0.00 67 1017.7
20260503004647 46 12 2.6 2.6 0.00 0.00 0.00 66 1017.4
20260503001645 47 18 2.6 2.6 0.00 0.00 0.00 63 1017.0
20260502234645 48 30 2.6 2.6 0.00 0.00 0.00 60 1016.7
20260502231643 49 4 3.5 3.5 0.00 0.00 0.00 56 1016.7
20260502224638 50 354 3.5 3.5 0.00 0.00 0.00 53 1016.3
20260502221637 51 6 2.6 2.6 0.00 0.00 0.00 53 1016.0
20260502214636 51 204 2.6 2.6 0.00 0.00 0.00 52 1016.0
20260502211631 51 37 1.7 1.7 0.00 0.00 0.00 49 1016.0
20260502204631 53 83 4.3 4.3 0.00 0.00 0.00 51 1015.6
20260502201631 52 354 1.7 1.7 0.00 0.00 0.00 50 1016.0
20260502194629 52 24 2.6 2.6 0.00 0.00 0.00 49 1016.3
20260502191627 54 11 2.6 2.6 0.00 0.00 0.00 47 1016.7
20260502184625 53 12 2.6 2.6 0.00 0.00 0.00 50 1017.0
20260502181620 53 347 4.3 4.3 0.00 0.00 0.00 52 1017.4
20260502161614 51 245 1.7 1.7 0.00 0.00 0.00 54 1017.7
20260502151606 48 246 2.6 2.6 0.00 0.00 0.00 61 1017.7
20260502121554 42 138 0.0 0.0 0.00 0.00 0.00 79 1018.4
20260502114553 41 132 1.7 1.7 0.00 0.00 0.00 82 1018.7
20260502111549 39 198 0.0 0.0 0.00 0.00 0.00 86 1018.4
20260502104544 37 168 0.0 0.0 0.00 0.00 0.00 89 1018.0
20260502101540 38 156 0.0 0.0 0.00 0.00 0.00 85 1018.4
20260502071527 40 0 0.0 0.0 0.00 0.00 0.00 89 1017.0
20260502064527 41 193 0.0 0.0 0.00 0.00 0.00 89 1016.7
20260502061523 42 156 0.0 0.0 0.00 0.00 0.00 86 1016.7
20260502054519 45 6 1.7 1.7 0.00 0.00 0.00 78 1017.0
20260502051516 45 136 0.0 0.0 0.00 0.00 0.00 81 1016.7
20260502044513 45 126 1.7 1.7 0.00 0.00 0.00 84 1017.0
20260502041511 47 209 1.7 1.7 0.00 0.00 0.00 82 1016.7